When you browse on this site, cookies collect data to enhance your experience and personalize the content and advertising you see.
Visit our Privacy Policy to learn more. By continuing to use the site, you agree to this use of cookies and data.

Météo par heure à Delyatichi

Ce jour, 13 Juillet, Lundi

Heure Température Précipitation Vent Pression Humidité
00:00 +10°C° 0 mm 3 m/s 753 mmHg 94%
01:00 +9°C° 0 mm 3 m/s 753 mmHg 95%
02:00 +9°C° 0 mm 3 m/s 753 mmHg 95%
03:00 +8°C° 0 mm 3 m/s 753 mmHg 95%
04:00 +8°C° 0 mm 3 m/s 752 mmHg 96%
05:00 +8°C° 0 mm 3 m/s 752 mmHg 96%
06:00 +9°C° 0 mm 3 m/s 752 mmHg 90%
07:00 +11°C° 0 mm 3 m/s 752 mmHg 85%
08:00 +13°C° 0 mm 3 m/s 752 mmHg 79%
09:00 +14°C° 0 mm 3 m/s 752 mmHg 74%
10:00 +15°C° 0 mm 4 m/s 751 mmHg 68%
11:00 +18°C° 0 mm 4 m/s 751 mmHg 63%
12:00 +18°C° 0 mm 4 m/s 751 mmHg 61%
13:00 +19°C° 0 mm 3 m/s 751 mmHg 59%
14:00 +19°C° 0 mm 3 m/s 751 mmHg 57%
15:00 +19°C° 0 mm 3 m/s 750 mmHg 58%
16:00 +19°C° 0 mm 3 m/s 750 mmHg 59%
17:00 +19°C° 0 mm 3 m/s 750 mmHg 60%
18:00 +18°C° 0 mm 3 m/s 749 mmHg 66%
19:00 +17°C° 0 mm 2 m/s 749 mmHg 73%
20:00 +15°C° 0 mm 2 m/s 749 mmHg 79%
21:00 +14°C° 0 mm 2 m/s 749 mmHg 83%
22:00 +13°C° 0 mm 2 m/s 750 mmHg 87%
23:00 +12°C° 0 mm 2 m/s 750 mmHg 91%

Demain, 14 Juillet, Mardi

Heure Température Précipitation Vent Pression Humidité
00:00 +10°C° 0 mm 2 m/s 750 mmHg 93%
01:00 +10°C° 0 mm 2 m/s 750 mmHg 94%
02:00 +10°C° 0 mm 2 m/s 750 mmHg 95%
03:00 +10°C° 0 mm 2 m/s 750 mmHg 96%
04:00 +9°C° 0 mm 2 m/s 750 mmHg 97%
05:00 +9°C° 0 mm 2 m/s 749 mmHg 97%
06:00 +12°C° 0 mm 2 m/s 750 mmHg 92%
07:00 +14°C° 0 mm 2 m/s 750 mmHg 86%
08:00 +16°C° 0 mm 2 m/s 750 mmHg 81%
09:00 +17°C° 0 mm 2 m/s 750 mmHg 75%
10:00 +18°C° 0 mm 3 m/s 749 mmHg 70%
11:00 +20°C° 0 mm 3 m/s 749 mmHg 65%
12:00 +20°C° 0.2 mm 3 m/s 749 mmHg 65%
13:00 +20°C° 0.2 mm 3 m/s 749 mmHg 65%
14:00 +21°C° 0.2 mm 3 m/s 749 mmHg 64%
15:00 +21°C° 0.2 mm 3 m/s 748 mmHg 66%
16:00 +20°C° 0.2 mm 4 m/s 748 mmHg 68%
17:00 +20°C° 0.2 mm 4 m/s 748 mmHg 70%
18:00 +19°C° 0.1 mm 3 m/s 748 mmHg 76%
19:00 +18°C° 0.1 mm 3 m/s 748 mmHg 82%
20:00 +16°C° 0.1 mm 2 m/s 748 mmHg 88%
21:00 +15°C° 0 mm 2 m/s 748 mmHg 90%
22:00 +14°C° 0 mm 2 m/s 748 mmHg 92%
23:00 +13°C° 0 mm 2 m/s 748 mmHg 93%

Après-demain, 15 Juillet, Mercredi

Heure Température Précipitation Vent Pression Humidité
00:00 +13°C° 0 mm 2 m/s 748 mmHg 94%
01:00 +13°C° 0 mm 2 m/s 748 mmHg 94%
02:00 +12°C° 0 mm 2 m/s 748 mmHg 94%
03:00 +12°C° 0 mm 2 m/s 748 mmHg 95%
04:00 +12°C° 0 mm 2 m/s 748 mmHg 95%
05:00 +12°C° 0 mm 2 m/s 748 mmHg 95%
06:00 +13°C° 0 mm 2 m/s 748 mmHg 91%
07:00 +15°C° 0 mm 2 m/s 748 mmHg 86%
08:00 +17°C° 0 mm 2 m/s 748 mmHg 82%
09:00 +18°C° 0 mm 2 m/s 748 mmHg 75%
10:00 +20°C° 0 mm 2 m/s 748 mmHg 68%
11:00 +21°C° 0 mm 2 m/s 748 mmHg 61%
12:00 +23°C° 0 mm 2 m/s 748 mmHg 60%
13:00 +23°C° 0 mm 2 m/s 748 mmHg 59%
14:00 +23°C° 0 mm 2 m/s 748 mmHg 58%
15:00 +23°C° 0.1 mm 2 m/s 747 mmHg 60%
16:00 +23°C° 0.1 mm 2 m/s 747 mmHg 62%
17:00 +23°C° 0.1 mm 2 m/s 747 mmHg 65%
18:00 +21°C° 0.3 mm 2 m/s 747 mmHg 72%
19:00 +20°C° 0.3 mm 1 m/s 747 mmHg 79%
20:00 +19°C° 0.3 mm 1 m/s 747 mmHg 86%
21:00 +18°C° 0 mm 1 m/s 748 mmHg 86%
22:00 +15°C° 0 mm 0 m/s 748 mmHg 87%
23:00 +14°C° 0 mm 0 m/s 748 mmHg 88%

16 Juillet, Jeudi

Heure Température Précipitation Vent Pression Humidité
00:00 +13°C° 0 mm 0 m/s 748 mmHg 89%
01:00 +13°C° 0 mm 0 m/s 748 mmHg 89%
02:00 +13°C° 0 mm 0 m/s 748 mmHg 90%
03:00 +13°C° 0 mm 0 m/s 748 mmHg 90%
04:00 +13°C° 0 mm 0 m/s 748 mmHg 90%
05:00 +13°C° 0 mm 0 m/s 748 mmHg 91%
06:00 +15°C° 0 mm 0 m/s 748 mmHg 87%
07:00 +16°C° 0 mm 0 m/s 748 mmHg 83%
08:00 +18°C° 0 mm 0 m/s 748 mmHg 79%
09:00 +20°C° 0.1 mm 0 m/s 748 mmHg 73%
10:00 +23°C° 0.1 mm 1 m/s 748 mmHg 67%
11:00 +24°C° 0.1 mm 1 m/s 748 mmHg 61%
12:00 +25°C° 0.2 mm 1 m/s 748 mmHg 59%
13:00 +25°C° 0.2 mm 1 m/s 748 mmHg 56%
14:00 +26°C° 0.2 mm 1 m/s 748 mmHg 54%
15:00 +25°C° 0.2 mm 1 m/s 747 mmHg 56%
16:00 +25°C° 0.2 mm 1 m/s 747 mmHg 59%
17:00 +25°C° 0.2 mm 1 m/s 747 mmHg 61%
18:00 +23°C° 0.1 mm 1 m/s 747 mmHg 68%
19:00 +22°C° 0.1 mm 1 m/s 747 mmHg 76%
20:00 +19°C° 0.1 mm 2 m/s 747 mmHg 84%
21:00 +18°C° 0 mm 2 m/s 748 mmHg 85%
22:00 +17°C° 0 mm 2 m/s 748 mmHg 87%
23:00 +16°C° 0 mm 2 m/s 748 mmHg 89%

17 Juillet, Vendredi

Heure Température Précipitation Vent Pression Humidité
00:00 +15°C° 0 mm 1 m/s 748 mmHg 88%
01:00 +15°C° 0 mm 1 m/s 748 mmHg 87%
02:00 +14°C° 0 mm 1 m/s 748 mmHg 87%
03:00 +14°C° 0 mm 1 m/s 748 mmHg 86%
04:00 +14°C° 0 mm 1 m/s 748 mmHg 86%
05:00 +14°C° 0 mm 1 m/s 748 mmHg 85%
06:00 +15°C° 0 mm 2 m/s 748 mmHg 81%
07:00 +17°C° 0 mm 2 m/s 748 mmHg 77%
08:00 +19°C° 0 mm 2 m/s 749 mmHg 72%
09:00 +20°C° 0 mm 2 m/s 749 mmHg 67%
10:00 +23°C° 0 mm 2 m/s 749 mmHg 63%
11:00 +24°C° 0 mm 3 m/s 749 mmHg 58%
12:00 +24°C° 0 mm 3 m/s 749 mmHg 57%
13:00 +25°C° 0 mm 3 m/s 749 mmHg 56%
14:00 +25°C° 0 mm 3 m/s 749 mmHg 55%
15:00 +25°C° 0 mm 3 m/s 749 mmHg 56%
16:00 +25°C° 0 mm 3 m/s 749 mmHg 58%
17:00 +24°C° 0 mm 2 m/s 749 mmHg 59%
18:00 +23°C° 0 mm 2 m/s 749 mmHg 65%
19:00 +20°C° 0 mm 2 m/s 749 mmHg 72%
20:00 +19°C° 0 mm 2 m/s 749 mmHg 79%
21:00 +18°C° 0 mm 1 m/s 749 mmHg 81%
22:00 +16°C° 0 mm 1 m/s 749 mmHg 83%
23:00 +15°C° 0 mm 1 m/s 750 mmHg 85%

18 Juillet, Samedi

Heure Température Précipitation Vent Pression Humidité
00:00 +15°C° 0 mm 1 m/s 750 mmHg 85%
01:00 +14°C° 0 mm 1 m/s 750 mmHg 85%
02:00 +14°C° 0 mm 1 m/s 750 mmHg 86%
03:00 +14°C° 0 mm 1 m/s 750 mmHg 87%
04:00 +14°C° 0 mm 1 m/s 750 mmHg 88%
05:00 +14°C° 0 mm 1 m/s 750 mmHg 89%
06:00 +15°C° 0 mm 1 m/s 750 mmHg 83%
07:00 +18°C° 0 mm 1 m/s 750 mmHg 77%
08:00 +19°C° 0 mm 2 m/s 750 mmHg 71%
09:00 +21°C° 0 mm 2 m/s 750 mmHg 65%
10:00 +23°C° 0 mm 2 m/s 750 mmHg 60%
11:00 +24°C° 0 mm 2 m/s 750 mmHg 55%
12:00 +24°C° 0.6 mm 2 m/s 750 mmHg 58%
13:00 +24°C° 0.6 mm 2 m/s 750 mmHg 61%
14:00 +24°C° 0.6 mm 2 m/s 749 mmHg 65%
15:00 +24°C° 1 mm 2 m/s 749 mmHg 67%
16:00 +23°C° 1 mm 2 m/s 749 mmHg 69%
17:00 +23°C° 1 mm 2 m/s 749 mmHg 71%
18:00 +21°C° 0.1 mm 2 m/s 749 mmHg 75%
19:00 +19°C° 0.1 mm 2 m/s 749 mmHg 79%
20:00 +18°C° 0.1 mm 2 m/s 749 mmHg 83%
21:00 +16°C° 0 mm 2 m/s 750 mmHg 86%
22:00 +15°C° 0 mm 2 m/s 750 mmHg 88%
23:00 +14°C° 0 mm 2 m/s 750 mmHg 91%
Voir plus